N3TUQ-2 Weather Reports


Display with metric or nautical units.
time (UTC)temp
F
wind
direction
speed
MPH
gust
MPH
rain 1hr
in
rain 24hr
in
rain mn
in
humidity
%
barometer
mb
20260504034114 41 0 0.0 0.0 0.00 0.00 0.00 75 1010.2
20260504032814 42 0 0.0 0.0 0.00 0.00 0.00 73 1010.2
20260504031518 42 0 0.0 0.0 0.00 0.00 0.00 71 1010.3
20260504031515 42 0 0.0 0.0 0.00 0.00 0.00 71 1010.3
20260504030215 42 0 0.0 1.0 0.00 0.00 0.00 70 1010.1
20260504024915 43 0 0.0 1.0 0.00 0.00 0.00 66 1010.2
20260504023615 42 0 0.0 0.0 0.00 0.00 0.00 68 1010.2
20260504022315 42 0 0.0 0.0 0.00 0.00 0.00 69 1010.3
20260504021014 43 0 0.0 0.0 0.00 0.00 0.00 68 1010.1
20260504015714 44 0 0.0 0.0 0.00 0.00 0.00 64 1010.0
20260504014415 45 0 0.0 1.0 0.00 0.00 0.00 60 1009.9
20260504013115 45 0 0.0 1.0 0.00 0.00 0.00 61 1009.8
20260504011815 45 0 0.0 1.0 0.00 0.00 0.00 61 1009.7
20260504010515 46 0 0.0 0.0 0.00 0.00 0.00 58 1009.7
20260504005214 47 0 0.0 1.0 0.00 0.00 0.00 55 1009.7
20260504003914 48 0 0.0 1.0 0.00 0.00 0.00 53 1009.6
20260504002618 49 0 0.0 2.0 0.00 0.00 0.00 52 1009.5
20260504002614 49 0 0.0 2.0 0.00 0.00 0.00 52 1009.5
20260504001315 50 0 0.0 2.0 0.00 0.00 0.00 50 1009.4
20260504000015 50 0 0.0 2.0 0.00 0.00 0.00 49 1009.4
20260503234715 51 330 1.0 4.0 0.00 0.00 0.00 47 1009.3
20260503233414 52 0 0.0 5.0 0.00 0.00 0.00 45 1009.3
20260503232114 53 0 0.0 6.0 0.00 0.00 0.00 46 1009.2
20260503230814 53 336 1.0 7.0 0.00 0.00 0.00 43 1009.1
20260503225514 53 0 0.0 7.0 0.00 0.00 0.00 45 1009.1
20260503224215 54 271 1.0 5.0 0.00 0.00 0.00 42 1009.2
20260503222915 54 303 1.0 8.0 0.00 0.00 0.00 43 1009.2
20260503221614 54 0 0.0 8.0 0.00 0.00 0.00 43 1008.2
20260503220314 54 172 2.0 7.0 0.00 0.00 0.00 41 1008.3
20260503215014 55 305 2.0 6.0 0.00 0.00 0.00 42 1008.3
20260503213714 54 0 0.0 8.0 0.00 0.00 0.00 43 1008.3
20260503212414 55 284 2.0 7.0 0.00 0.00 0.00 42 1008.2
20260503211115 55 0 0.0 4.0 0.00 0.00 0.00 43 1008.1
20260503205815 54 301 1.0 11.0 0.00 0.00 0.00 44 1008.1
20260503204514 55 264 2.0 5.0 0.00 0.00 0.00 40 1008.3
20260503203214 56 156 1.0 8.0 0.00 0.00 0.00 41 1008.3
20260503201914 55 348 1.0 9.0 0.00 0.00 0.00 41 1008.2
20260503200614 54 123 2.0 7.0 0.00 0.00 0.00 41 1008.3
20260503195314 54 323 1.0 5.0 0.00 0.00 0.00 42 1008.5
20260503194015 54 291 4.0 9.0 0.00 0.00 0.00 42 1008.8
20260503192715 53 314 2.0 7.0 0.00 0.00 0.00 44 1009.2
20260503191414 53 271 4.0 10.0 0.00 0.00 0.00 44 1009.3
20260503190114 53 316 6.0 11.0 0.00 0.00 0.00 45 1009.5
20260503184814 53 311 1.0 7.0 0.00 0.00 0.00 44 1009.3
20260503183514 53 330 2.0 7.0 0.00 0.00 0.00 43 1009.3
20260503182214 53 299 2.0 10.0 0.00 0.00 0.00 44 1009.5
20260503180915 52 320 1.0 10.0 0.00 0.00 0.00 45 1009.5
20260503175614 52 292 3.0 10.0 0.00 0.00 0.00 45 1009.6
20260503174314 52 343 2.0 13.0 0.00 0.00 0.00 45 1009.7
20260503173017 54 278 3.0 10.0 0.00 0.00 0.00 43
20260503173014 54 278 3.0 10.0 0.00 0.00 0.00 43 1009.7
20260503171716 52 293 2.0 7.0 0.00 0.00 0.00 41 1009.7
20260503171714 52 293 2.0 7.0 0.00 0.00 0.00 41 1009.7
20260503170414 52 322 4.0 15.0 0.00 0.00 0.00 42 1009.9
20260503150714 47 342 1.0 8.0 0.00 0.00 0.00 55 1011.1
20260503140213 44 301 2.0 9.0 0.00 0.00 0.00 52 1011.4
20260503131014 41 282 2.0 9.0 0.00 0.00 0.00 60 1011.5
20260503081116 34 0 0.0 3.0 0.00 0.00 0.00 79 1010.4
20260503081113 34 0 0.0 1.0 0.00 0.00 0.00 79 1010.4
20260503071914 34 0 0.0 0.0 0.00 0.00 0.00 78 1010.2
20260503070613 34 0 0.0 0.0 0.00 0.00 0.00 78 1010.3
20260503060113 35 0 0.0 0.0 0.00 0.00 0.00 77 1010.5
20260503054816 35 0 0.0 2.0 0.00 0.00 0.00 77 101.0
20260503054813 35 0 0.0 2.0 0.00 0.00 0.00 77 1010.5
20260503053513 35 0 0.0 0.0 0.00 0.00 0.00 79 1010.5
20260503052213 35 0 0.0 0.0 0.00 0.00 0.00 78 1010.5
20260503050916 35 0 0.0 0.0 0.00 0.00 0.00 78 1010.5
20260503050913 35 0 0.0 0.0 0.00 0.00 0.00 78 1010.5
20260503045613 35 0 0.0 0.0 0.00 0.00 0.00 77 1010.7
20260503044314 36 0 0.0 0.0 0.00 0.01 0.00 75 1010.8
20260503043017 36 0 0.0 0.0 0.00 0.01 0.00 74 1030.9
20260503043013 36 0 0.0 0.0 0.00 0.01 0.00 74 1010.9
20260503041713 37 0 0.0 0.0 0.00 0.01 0.00 73 1010.9
20260503040413 37 0 0.0 0.0 0.00 0.01 0.01 72 1011.0
20260503035115 37 0 0.0 0.0 0.00 0.01 0.01 72 1011.0
20260503035113 37 0 0.0 0.0 0.00 0.01 0.01 72 1011.0